Greenville Junction, ME

12:18 AM EDT on October 01, 2016 (GMT -0400)
Greenville

Weather History for KGNR - March, 2014

Change the Weather History Date:

Monday, March 31, 2014

  Actual Average (KMLT) Record (KMLT)
Temperature  
Mean Temperature 28 °F 33 °F  
Max Temperature 32 °F 43 °F 71 °F (1998)
Min Temperature 25 °F 24 °F -5 °F (1954)
Degree Days  
Heating Degree Days 36 32  
Month to date heating degree days 1146  
Since 1 July heating degree days 7199  
Cooling Degree Days 0 0  
Month to date cooling degree days 0  
Year to date cooling degree days 0  
Moisture  
Dew Point 23 °F    
Average Humidity 82    
Maximum Humidity 89    
Minimum Humidity 69    
Precipitation  
Precipitation 0.01 in 0.13 in 1.91 in (1932)
Month to date precipitation 3.06  
Year to date precipitation 8.17  
Sea Level Pressure  
Sea Level Pressure 29.95 in    
Wind  
Wind Speed 16 mph (North)    
Max Wind Speed 23 mph    
Max Gust Speed 38 mph    
T = Trace of Precipitation, MM = Missing Value Source: NWS Daily Summary

Daily Weather History Graph

Daily Weather History Graph

Search for Another Location

Airport or City:

Trip Planner

Search our weather history database for the weather conditions in past years. The results will help you decide how hot, cold, wet, or windy it might be!

Date:

Astronomy

Mar. 31, 2014 Rise Set
Actual Time 6:20 AM EDT 7:05 PM EDT
Civil Twilight 5:50 AM EDT 7:35 PM EDT
Nautical Twilight 5:15 AM EDT 8:10 PM EDT
Astronomical Twilight 4:38 AM EDT 8:47 PM EDT
Moon 6:39 AM EDT (3/31) 8:24 PM EDT (3/31)
Length of Visible Light 13h 44m
Length of Day
12h 44m
New Moon, 1% of the Moon is Illuminated
Mar 31
New Moon
Apr 7
First Quarter
Apr 15
Full
Apr 22
Last Quarter
Apr 29
New

Hourly Weather History & Observations

Time (EDT) Temp. Windchill Dew Point Humidity Pressure Visibility Wind Dir Wind Speed Gust Speed Precip Events Conditions
12:56 AM 26.1 °F 15.0 °F 23.0 °F 88% 29.87 in - North 12.7 mph - N/A   Unknown
1:56 AM 25.0 °F 13.1 °F 21.9 °F 88% 29.87 in - North 13.8 mph 24.2 mph N/A   Unknown
2:56 AM 25.0 °F 13.1 °F 21.9 °F 88% 29.87 in - North 13.8 mph 23.0 mph N/A   Unknown
3:56 AM 25.0 °F 13.1 °F 21.0 °F 85% 29.83 in - NNW 13.8 mph 26.5 mph N/A   Unknown
4:56 AM 25.0 °F 11.3 °F 21.0 °F 85% 29.86 in - North 18.4 mph 29.9 mph N/A   Unknown
5:56 AM 25.0 °F 12.2 °F 21.9 °F 88% 29.88 in - North 16.1 mph 21.9 mph N/A   Unknown
6:56 AM 25.0 °F 11.7 °F 21.9 °F 88% 29.91 in - North 17.3 mph 27.6 mph N/A   Unknown
7:56 AM 25.0 °F 12.6 °F 21.9 °F 88% 29.93 in - North 15.0 mph 28.8 mph N/A   Unknown
8:56 AM 26.1 °F 14.0 °F 21.9 °F 84% 29.94 in - North 15.0 mph 26.5 mph N/A   Unknown
9:56 AM 26.1 °F 13.6 °F 21.9 °F 84% 29.95 in - North 16.1 mph 26.5 mph N/A   Unknown
10:56 AM 27.0 °F 12.8 °F 21.9 °F 81% 29.95 in - North 21.9 mph 35.7 mph N/A   Unknown
11:56 AM 28.0 °F 13.9 °F 21.9 °F 78% 29.94 in - North 23.0 mph 35.7 mph N/A   Unknown
12:56 PM 28.9 °F 16.1 °F 23.0 °F 78% 29.94 in - North 19.6 mph 28.8 mph N/A   Unknown
1:56 PM 30.0 °F 16.9 °F 21.9 °F 72% 29.94 in - North 21.9 mph 38.0 mph N/A   Unknown
2:56 PM 32.0 °F 19.2 °F 23.0 °F 69% 29.93 in - North 23.0 mph 35.7 mph N/A   Unknown
3:56 PM 30.9 °F 18.1 °F 23.0 °F 72% 29.93 in - North 21.9 mph 32.2 mph N/A   Unknown
4:56 PM 30.9 °F 18.1 °F 23.0 °F 72% 29.97 in - North 21.9 mph 35.7 mph N/A   Unknown
5:56 PM 30.9 °F 19.8 °F 24.1 °F 76% 30.01 in - North 16.1 mph 28.8 mph N/A   Unknown
6:56 PM 32.0 °F 22.1 °F 23.0 °F 69% 30.01 in - North 13.8 mph 32.2 mph N/A   Unknown
7:56 PM 28.9 °F 16.5 °F 26.1 °F 89% 30.05 in - NNW 18.4 mph 25.3 mph 0.01 in   Unknown
8:56 PM 28.0 °F 15.7 °F 25.0 °F 88% 30.06 in - NNW 17.3 mph 26.5 mph N/A   Unknown
9:56 PM 28.0 °F 18.6 °F 25.0 °F 88% 30.06 in - NNW 10.4 mph 24.2 mph N/A   Unknown
10:56 PM 28.0 °F 16.1 °F 24.1 °F 85% 30.06 in - North 16.1 mph 27.6 mph N/A   Unknown
11:56 PM 28.0 °F 17.0 °F 23.0 °F 81% 30.06 in - North 13.8 mph 24.2 mph N/A   Unknown